Retour au catalogue

STARLINK-5913

ActifCommunicationsVLEO
NORAD 55937·PAYLOAD·🇺🇸 United States

Lancé Mar 17, 2023 depuis Vandenberg Space Force Base

Loading…

Prochains Passages (prochaines 24 heures)

TLE

FraisSource: CelesTrak SupGP

Époque: Sep 15, 2026, 01:27 UTC

1 55937C 23037Z   26258.06090278  .00357650  00000+0  29069-1 0  2589
2 55937  70.0005 167.0257 0003062 272.9957 141.1570 14.99330319    15

Suivez STARLINK-5913 en temps réel avec AllMySat

Download on the App Store